KZ-1A R/B (53759 NORAD) Tracking and Keplerian Element Data

This shows tracking and keplerian element data for the satellite.

Feedback or suggestion? Click here.




ElementValue
Catalog53759
NameKZ-1A R/B
Epoch Orbit324
Epoch Day270.21788467
Epoch Year2022
RAAN248.2374
Inclination53.5573
Eccentricity0.0342805
Argument of Perigee142.5866
Mean Anonmoly219.9513
Mean Motion15.46348928
Decay Rate0.00451463
L11 53759U 22108C 22270.21788467 .00451463 10067-4 64810-3 0 9991
L22 53759 53.5573 248.2374 0342805 142.5866 219.9513 15.46348928 3242



Live tracking and technical data element details for KZ-1A R/B (NORAD 53759). KZ-1A R/B can be tracked NOW for your location showing map with azimuth and elevation plus other details from your city location.







IsCatalogInMostPopularTable: catalog: 53759, numindb: -1

Insert: records affected: 1


GetName: 53759 KZ-1A R/B

Hit Count: inserted at: Mon, 28 Nov 2022 05:51:20 GMT